GLOBALSTAR M066

Last updated on Sat Sep 05 2026 00:03:15 GMT+0000 (Coordinated Universal Time)

1 32265U 07048C 26247.55041837 -.00000101 00000+0 -58084-4 0 9993 2 32265 51.9577 190.0825 0004424 207.0722 324.4075 12.30391488869998
UTC large
Height (km)
Speed (km/s)
/
Latitude / Longitude
Inclination (degrees)
Orbital Period (minutes)
Azimuth
Elevation
Range (km)
Doppler Factor

Next 0 passes for location: London (51.5072 / 0.1276)

No passes found over London.
GLOBALSTAR M066